Regional Weather Roundup
Issued by NWS Grand Forks, ND

Home | Current Version | Previous Version | Text Only | Print | Product List | Glossary On
Versions: 1 2 3 4 5 6 7 8 9 10 11 12 13 14 15 16 17 18 19 20 21 22 23 24 25 26 27 28 29 30 31 32 33 34 35 36 37 38 39 40 41 42 43 44 45 46 47 48 49 50
000
ASUS43 KFGF 021010
RWRFGF
PRAIRIE TO PINES  WEATHER ROUNDUP
NATIONAL WEATHER SERVICE EASTERN NORTH DAKOTA/GRAND FORKS ND
500 AM CDT TUE SEP 02 2014

 **SATELLITE DATA USED TO AUGMENT SKY COVER AT AUTOMATED STATIONS**
 *****  WEATHER ACROSS EASTERN NORTH DAKOTA  *****

CITY           SKY/WX    TMP DP  RH WIND       PRES   REMARKS
GRAND FORKS    CLEAR     52  48  86 W7        29.76S
GRAND FRKS AFB CLEAR     50  50  98 W6        29.78S
GRAND FRKS NWS   N/A     52 N/A N/A W6          N/A
DEVILS LAKE    PTCLDY    57  48  72 SW7       29.78S
FARGO          CLEAR     51  49  92 SW6       29.81S
WAHPETON ARPT  SUNNY     50  46  87 W5        29.84S
$$

 ***** WEATHER ACROSS CENTRAL AND WESTERN NORTH DAKOTA  *****

CITY           SKY/WX    TMP DP  RH WIND       PRES   REMARKS
BISMARCK       PTCLDY    50  48  93 CALM      29.85S
MINOT          LGT RAIN  57  49  74 W17       29.81R
JAMESTOWN      CLEAR     53  49  86 W5        29.83S
MINOT AFB      LGT RAIN  55  52  90 S13       29.77F
GARRISON         N/A     53  51  93 SW7       29.79F
WILLISTON      CLOUDY    56  49  77 SW7       29.77F
DICKINSON      MOCLDY    51  45  79 SW10      29.83F
HETTINGER      CLEAR     49  43  80 W5        29.90F
$$

 *****  OTHER AIRPORT OBSERVATIONS IN OUR AREA  *****

CITY           SKY/WX    TMP DP  RH WIND       PRES   REMARKS
WALHALLA       FAIR      52  48  87 W6        29.75S
GRAFTON AIRPOR FAIR      50  50 100 W7        29.75S
VALLEY CITY AR FAIR      50  50 100 W5        29.83S
CANDO          FAIR      46  46 100 SW7       29.79S
CAVALIER APRT  FAIR      50  48  93 W8        29.75R
GWINNER        SUNNY     54  54 100 SW8       29.86S
SHEYENNE NWR     N/A     49  49  98 W2        29.95S
ROLLA          FAIR      45  45 100 SW5       29.79S
 ***** THE ABOVE OBSERVATIONS ARE NON NWS ARE NOT QUALITY
       CONTROLLED AND MAY MIS-REPORT RAIN FOR SNOW...
$$

  *****  WEATHER ACROSS NORTHERN MINNESOTA  *****

CITY           SKY/WX    TMP DP  RH WIND       PRES   REMARKS
FLAG ISLAND    CLEAR     55  50  82 W13       29.71R
WARROAD        CLEAR     50  46  87 SW5       29.74S
ROSEAU           N/A     52  46  82 SW6       29.74S
HALLOCK        CLEAR     46  45  93 S3        29.74S
THF RVR FALLS  CLEAR     48  46  93 S5        29.77F
BAUDETTE       CLEAR     51  48  89 CALM      29.74R
WASKISH        CLEAR     57  55  94 S3        29.77S
CROOKSTON      CLEAR     52  48  87 CALM      29.78S
$$
  *****  WEATHER ACROSS CENTRAL AND WEST MINNESOTA  *****

CITY           SKY/WX    TMP DP  RH WIND       PRES   REMARKS
FOSSTON        MOCLDY    46  46 100 S6        29.81S
BEMIDJI        CLEAR     54  50  86 SW7       29.80S
PARK RAPIDS    CLEAR     49  47  93 CALM      29.82S
ELBOW LAKE     FAIR      53  52  96 CALM      29.85S
WADENA         CLEAR     52  50  93 W5        29.84R
DETROIT LAKES  CLEAR     55  52  88 SW5       29.83S
MOORHEAD       CLEAR     54  54 100 S5        29.82F
FERGUS FALLS   CLEAR     54  52  94 CALM      29.85S
MORRIS MN      CLEAR     54  52  94 W5        29.86R
STAPLES        PTCLDY    50  48  93 CALM      29.84R
$$
  *****  WEATHER ELSEWHERE ACROSS MINNESOTA  *****

CITY           SKY/WX    TMP DP  RH WIND       PRES   REMARKS
DULUTH         MOCLDY    55  51  86 W7        29.81R
INTRNTL FALLS  CLEAR     47  46  97 SW5       29.74S
ELY            PTCLDY    50  48  93 SW5       29.78S
CLOQUET        MOCLDY    54  50  87 W6        29.82R
WHEATON        CLEAR     54  52  94 SW5       29.86F
BRAINERD       MOCLDY    50  50 100 S5        29.84R
HIBBING        FOG       45  43  93 CALM      29.80R VSB 1/4
ALEXANDRIA     PTCLDY    56  53  90 CALM      29.87R
SAINT CLOUD    CLOUDY    60  55  83 CALM      29.84R
MINNEAPOLIS    CLOUDY    63  59  87 SW5       29.83S
$$

  *****  WEATHER ACROSS SOUTH DAKOTA  *****

CITY           SKY/WX    TMP DP  RH WIND       PRES   REMARKS
SIOUX FALLS    CLEAR     57  54  89 CALM      29.93R
BROOKINGS      NOT AVBL
WATERTOWN      CLEAR     50  48  93 SW3       29.89S
HURON          CLEAR     53  52  96 S3        29.90F
SISSETON         N/A     55  53  93 W3        29.84F
ABERDEEN       CLEAR     48  48 100 SW3       29.88S
MITCHELL       CLEAR     57  55  93 W8        29.92S
PIERRE         CLEAR     54  51  90 SW12      29.91S
MOBRIDGE       CLEAR     48  47  96 CALM      29.87F
RAPID CITY     CLEAR     47  41  80 W3        29.98F
$$

  *****  SOME WEATHER IN NEARBY STATES *****

CITY           SKY/WX    TMP DP  RH WIND       PRES   REMARKS
GLASGOW MT     CLEAR     57  44  62 W9        29.79S
GREAT FALLS MT FAIR      49  38  65 SW9       29.91S
CHEYENNE WY    CLEAR     45  40  82 SW6       30.16S
SCOTTSBLUFF NE CLEAR     45  44  97 CALM      30.07F
OMAHA NE       CLEAR     59  56  89 N6        29.95R
DES MOINES IA  PTCLDY    64  58  80 CALM      29.90R
DAVENPORT IA   FOG       57  57 100 CALM      29.88F VSB 3/4
CHICAGO IL     CLOUDY    68  64  87 W5        29.87S
EAU CLAIRE WI  MOCLDY    59  58  96 S5        29.81F
LA CROSSE WI   PTCLDY    61  59  93 S6        29.85R
$$

  *****  SOME NATIONAL WEATHER *****

CITY           SKY/WX    TMP DP  RH WIND       PRES   REMARKS
LA GUARDIA NY  PTCLDY    79  72  79 SW3       29.89S
RALEIGH NC     PTCLDY    72  68  87 SW5       30.06R
ATLANTA GA     PTCLDY    72  69  90 W8        30.09S
NEW ORLEANS LA MOCLDY    80  75  84 CALM      30.02R
OKLAHOMA CITY  MOCLDY    78  67  68 S10       29.83F
ALBUQUERQUE NM CLEAR     69  40  34 CALM      30.09R
SALT LAKE CITY FAIR      61  38  42 S9        30.01F
LOS ANGELES CA MOCLDY    68  63  84 E5        29.84S
BOISE ID       FAIR      57  35  43 SE7       29.96F
SEATTLE WA     MOCLDY    62  54  74 N8        29.98S
$$

*** WEATHER ACROSS MANITOBA...SASKATCHEWAN AND ONTARIO ***
                ***ONTARIO***

CITY           SKY/WX    TMP DP  RH WIND       PRES   REMARKS
GERALDTON      PTCLDY    52  52 100 W7        29.65R
THUNDER BAY    MOCLDY    52  52 100 NW3       29.72S
SIOUX LOOKOUT  PTCLDY    54  54 100 W6        29.67R
TORONTO        MOCLDY    70  68  94 SW2       29.82R
BIG TROUT LK   CLOUDY    55  54  94 NW9G17    29.49R
PICKLE LAKE    NOT AVBL
DRYDEN         CLEAR     52  52 100 W8        29.69R
KENORA         CLEAR     54  48  82 W7        29.71R
$$
                *** MANITOBA***

CITY           SKY/WX    TMP DP  RH WIND       PRES   REMARKS
BRANDON        MOCLDY    46  46 100 W3        29.74S
DAUPHIN        CLOUDY    50  48  93 W5        29.68S
ISLAND LAKE    NOT AVBL
PILOT MOUND      N/A     43  43 100 SW6         N/A
THE PAS        PTCLDY    52  50  93 W8        29.59S
THOMPSON       PTCLDY    43  43 100 CALM      29.52R
WINNIPEG       CLEAR     50  46  87 W8        29.71S
CHURCHILL      FOG       50  50 100 E9        29.49R VSB 1/2
GILLAM         MOCLDY    46  46 100 S3        29.49R
$$
                ***SASKATCHEWAN***

CITY           SKY/WX    TMP DP  RH WIND       PRES   REMARKS
ESTEVAN        PTCLDY    48  46  93 SE6       29.73F
KINDERSLEY     MOCLDY    45  43  93 W7        29.73S
LLOYDMINSTER   CLOUDY    50  45  81 W9        29.72R
PRINCE ALBERT  PTCLDY    46  46 100 W3        29.66R
REGINA         MOCLDY    48  45  87 SE7       29.70F
YORKTON        MOCLDY    50  48  93 SE3       29.68F
N. BATTLEFORD  CLOUDY    50  48  93 W7        29.72R
LA RONGE       NOT AVBL
SASKATOON      NOT AVBL
SWIFT CURRENT  CLEAR     48  45  87 W9        29.74R
$$
NOTE: THESE ARE AUTOMATED STATIONS WITH LIMITED QUALITY CONTROL
      "FAIR" INDICATES FEW OR NO CLOUDS BELOW 12,000 FEET WITH NO
      SIGNIFICANT WEATHER AND/OR OBSTRUCTIONS TO VISIBILITY.
      SKY/WX - SKY CONDITION AND SIGNIFICANT WEATHER.
      TMP - AIR TEMPERATURE.    DP   - DEWPOINT TEMPERATURE.
      RH  - RELATIVE HUMIDITY.  PRES - PRESSURE.
      HX  - HEAT INDEX.         WCI  - WIND CHILL INDEX.
$


USA.gov is the U.S. government's official web portal to all federal, state and local government web resources and services.